Regional Weather Roundup
Issued by NWS Kansas City/Pleasant Hill, MO

Home | Current Version | Previous Version | Graphics & Text | Print | Product List | Glossary Off
Versions: 1 2 3 4 5 6 7 8 9 10 11 12 13 14 15 16 17 18 19 20 21 22 23 24 25 26 27 28 29 30 31 32 33 34 35 36 37 38 39 40 41 42 43 44 45 46 47 48 49 50

000
ASUS43 KEAX 010210
RWREAX

WEATHER ROUNDUP FOR EASTERN KANSAS AND NORTHWEST MISSOURI
NATIONAL WEATHER SERVICE KANSAS CITY/PLEASANT HILL MO
800 PM CST SAT JAN 31 2015

KSZ040-057-103>105-MOZ028-029-037-043-010300-
...KANSAS CITY METROPOLITAN AREA...

CITY           SKY/WX    TMP DP  RH WIND       PRES   REMARKS
K.C. INTL      LGT RAIN  34  34 100 SE13      29.96F FOG     WCI  25
K.C. DOWNTOWN  LGT RAIN  37  34  89 E7        29.97F WCI  32
LEES SUMMIT    LGT RAIN  35  34  96 E7        29.97F FOG     WCI  29
OLATHE - IXD   LGT RAIN  35  34  96 SE7       29.96F WCI  29
OLATHE - OJC   LGT RAIN  36  35  96 SE8       29.95F FOG     WCI  30
LAWRENCE       LGT RAIN  36  34  92 SE12      29.95F FOG     WCI  28

$$

MOZ001>008-011>017-020>025-030>033-038>040-044>046-053-054-010300-
...NORTHERN AND CENTRAL MISSOURI...

CITY           SKY/WX    TMP DP  RH WIND       PRES   REMARKS
ST. JOSEPH     LGT SNOW  33  32  96 SE9       29.97F FOG     WCI  25
MOSBY          RAIN      34  34 100 E6        29.99F WCI  29
WARRENSBURG    DRIZZLE   36  34  93 E6        29.99F WCI  31
WHITEMAN AFB   LGT RAIN  37  33  87 SE3       29.98F
CLINTON        DRIZZLE   37  34  87 E5        29.99F WCI  34
SEDALIA        CLOUDY    38  33  82 SE12      30.01F WCI  30
WARSAW         NOT AVBL
MARSHALL       MIX PCPN  39  37  93 SE10      30.04  WCI  32
CHILLICOTHE      N/A     34  33  96 SE5       30.03F WCI  30
MOBERLY        MIX PCPN  36  32  87 E7        30.06F WCI  30
KIRKSVILLE     LGT SNOW  33  33 100 SE9       30.06F VSB 3/4 WCI  25

$$

MOZ041-047>049-056>058-063>065-088>090-097-010300-
...EASTERN AND SOUTHERN MISSOURI...

CITY           SKY/WX    TMP DP  RH WIND       PRES   REMARKS
ST. LOUIS INTL CLOUDY    42  27  55 CALM      30.14F
SPIRIT OF STL  CLOUDY    42  26  53 SE6       30.11F
COLUMBIA       LGT RAIN  37  35  92 SE8       30.04F WCI  31
JEFFERSON CITY CLOUDY    37  34  89 SE6       30.06F WCI  32
HANNIBAL       LGT SNOW  36  34  93 SE5       30.10F WCI  32
ROLLA          CLOUDY    38  22  52 SE12      30.04F WCI  30
LEBANON        CLOUDY    41  19  42 SE15      30.01F WCI  33
OSAGE BEACH    CLOUDY    39  25  56 SE8       30.02F WCI  34
SPRINGFIELD    CLOUDY    43  23  45 SE22G29   29.95F WCI  34
BRANSON        CLOUDY    41  25  52 SE12      30.03F WCI  34
NEVADA         LGT RAIN  39  32  75 SE5       29.97F
JOPLIN         LGT RAIN  42  35  76 VRB3      29.95F
WEST PLAINS    CLOUDY    40  22  48 SE10      30.09F WCI  33

$$

IAZ060-094-KSZ022-034>040-054-083-096-NEZ052-066-093-010300-
...KANSAS...SOUTHEAST NEBRASKA AND IOWA...

CITY           SKY/WX    TMP DP  RH WIND       PRES   REMARKS
TOPEKA         LGT RAIN  35  34  96 SE12      29.94F FOG     WCI  27
MANHATTAN      LGT RAIN  37  35  92 S10       29.89F WCI  30
EMPORIA        LGT RAIN  37  36  96 SE14      29.90F FOG     WCI  28
CHANUTE        LGT RAIN  38  37  97 SE14      29.92F FOG     WCI  30
WICHITA        LGT RAIN  39  38  96 S15       29.87F WCI  31
OMAHA          LGT SNOW  33  32  96 SE3       29.94F VSB 1
LINCOLN        LGT SNOW  33  32  96 CALM      29.91F VSB 3/4
FALLS CITY     LGT SNOW  32  32 100 SE10      29.92F VSB 1   WCI  24
LAMONI         LGT SNOW  33  32  96 SE10      29.98F VSB 1   WCI  25
DES MOINES     LGT SNOW  34  32  92 E6        30.01F VSB 3/4 WCI  29

$$




USA.gov is the U.S. government's official web portal to all federal, state and local government web resources and services.